User: anonymous   Login
Location: Unspecified
(0.0000°N, 0.0000°E)
Time: 17:36:31
(UTC+00:00)
Language:

PAYLOAD D - Orbit

View from above orbital plane
View from above orbital plane
View from above satellite
View from above satellite

Ground track
Ground track

The orbit data is extracted from the following two-line orbital elements,

1 27058U 01058D   19017.07551515  .00000040  00000-0  16780-3 0  9992
2 27058  82.5360 139.1589 0003327  33.3618 326.7684 12.62022618785683
Epoch (UTC): 17 January 2019 01:48:44
Eccentricity: 0.0003327
inclination: 82.5360°
perigee height: 1412 km
apogee height: 1417 km
right ascension of ascending node: 139.1589°
argument of perigee: 33.3618°
revolutions per day: 12.62022618
mean anomaly at epoch: 326.7684°
orbit number at epoch: 78568

The dashed part of the orbit path shows where the satellite is in the earth's shadow,  

DLR